This demonstration page uses our WeatherBlox Daily Observations layout. Learn more.

Left ArrowRight Arrow

44.8408, -93.29828

Hourly Observations for August 11, 2017

Temp ( °F °C ) Dew Point ( °F °C ) Humidity (%) Winds ( mph kmh ) Pressure ( in mb ) Visibility ( mi km ) Precip ( " mm )
12:53 am 00:53 Clear 62 16.7 57 13.9 84 84 N 5 7 30.08 1019 10 16 0.00 0.00
1:53 am 01:53 Clear 61 16.1 56 13.3 84 84 N 3 6 30.08 1019 10 16 0.00 0.00
2:53 am 02:53 Clear 60 15.6 56 13.3 86 86 NNW 3 6 30.09 1019 10 16 0.00 0.00
3:53 am 03:53 Clear 59 15 56 13.3 90 90 NNW 6 9 30.10 1019 10 16 0.00 0.00
4:53 am 04:53 Clear 59 15 56 13.3 90 90 NNE 5 7 30.11 1020 10 16 0.00 0.00
5:09 am 05:09 Mostly Clear 59 15 56 13.3 90 90 NNE 3 6 30.09 1019 10 16 0.00 0.00
5:18 am 05:18 Mostly Cloudy 59 15 56 13.3 90 90 VRB 3 6 30.09 1019 10 16 0.00 0.00
5:53 am 05:53 Cloudy 59 15 57 13.9 93 93 NE 6 9 30.12 1020 10 16 0.00 0.00
6:22 am 06:22 Cloudy with Mist and Fog 59 15 57 13.9 93 93 N 6 9 30.09 1019 4 6 0.00 0.00
6:30 am 06:30 Cloudy with Mist and Fog 59 15 57 13.9 93 93 N 5 7 30.09 1019 1 2 0.00 0.00
6:39 am 06:39 Cloudy with Fog 59 15 57 13.9 93 93 NNE 3 6 30.09 1019 0 0 0.00 0.00
6:53 am 06:53 Cloudy with Fog 59 15 57 13.9 93 93 N 5 7 30.13 1020 0 0 0.00 0.00
7:48 am 07:48 Cloudy with Mist and Fog 59 15 57 14 94 94 NW 5 7 30.12 1020 1 1 0.00 0.00
7:53 am 07:53 Cloudy with Mist and Fog 59 15 58 14.4 96 96 NNW 5 7 30.14 1021 1 1 0.00 0.00
8:00 am 08:00 Cloudy with Mist and Fog 60 15.6 58 14.4 93 93 NNW 3 6 30.12 1020 3 4 0.00 0.00
8:07 am 08:07 Cloudy with Mist and Fog 61 16.1 59 15 93 93 NNE 5 7 30.12 1020 5 8 0.00 0.00
8:28 am 08:28 Mostly Sunny 63 17.2 59 15 87 87 VRB 3 6 30.12 1020 10 16 0.00 0.00
8:53 am 08:53 Sunny 65 18.3 58 14.4 78 78 VRB 3 6 30.14 1021 10 16 0.00 0.00
9:53 am 09:53 Sunny 69 20.6 57 13.9 66 66 NNW 7 11 30.14 1021 10 16 0.00 0.00
10:53 am 10:53 Sunny 73 22.8 56 13.3 55 55 NNW 7 11 30.14 1021 10 16 0.00 0.00
11:53 am 11:53 Mostly Sunny 74 23.3 55 12.8 52 52 NNW 8 13 30.13 1020 10 16 0.00 0.00
12:53 pm 12:53 Mostly Cloudy 77 25 54 12.2 45 45 NNE 12 19 30.11 1020 10 16 0.00 0.00
1:53 pm 13:53 Mostly Sunny 76 24.4 53 11.7 45 45 VRB 6 9 30.10 1019 10 16 0.00 0.00
2:53 pm 14:53 Partly Cloudy 78 25.6 53 11.7 42 42 WNW 5 7 30.09 1019 10 16 0.00 0.00
3:53 pm 15:53 Partly Cloudy 77 25 53 11.7 43 43 N 8 13 30.08 1019 10 16 0.00 0.00
4:53 pm 16:53 Mostly Cloudy 78 25.6 53 11.7 42 42 N 9 15 30.07 1018 10 16 0.00 0.00
5:53 pm 17:53 Mostly Cloudy 76 24.4 53 11.7 45 45 NNW 7 11 30.06 1018 10 16 0.00 0.00
6:53 pm 18:53 Mostly Cloudy 76 24.4 51 10.6 42 42 N 10 17 30.06 1018 10 16 0.00 0.00
7:53 pm 19:53 Mostly Cloudy 75 23.9 52 11.1 45 45 VRB 7 11 30.06 1018 10 16 0.00 0.00
8:53 pm 20:53 Partly Cloudy 72 22.2 53 11.7 52 52 NNW 3 6 30.07 1018 10 16 0.00 0.00
9:53 pm 21:53 Mostly Clear 68 20 54 12.2 61 61 N 5 7 30.08 1019 10 16 0.00 0.00
10:53 pm 22:53 Mostly Clear 67 19.4 56 13.3 68 68 NNW 3 6 30.08 1019 10 16 0.00 0.00
11:53 pm 23:53 Partly Cloudy 67 19.4 56 13.3 68 68 E 6 9 30.09 1019 10 16 0.00 0.00

Powered by AerisWeather